Kailua, HI

6:40 PM HST on August 04, 2015 (GMT -1000)
Kaneohe Bay Dr | | Change Station
CLOSE
Current Station
Personal Weather Station
Location: Kaneohe, HI
Elevation: 78 ft
Nearby Weather Stations
Active Advisory: High Surf Advisory

Elev 78 ft 21.41 °N, 157.77 °W | Updated 13 seconds ago

Partly Cloudy
Partly Cloudy
80.6 °F
Feels Like 86 °F
N
8.1
Wind Variable Wind from NE
Gusts 10.0 mph

Today
High -- | Low -- °F
--% Chance of Precip.
Yesterday
High -- | Low -- °F
Precip. -- in
6:05 AM 7:08 PM
Waning Gibbous, 71% visible
Pressure 29.82 in
Visibility -9999.0 miles
Clouds Few 1700 ft
Heat Index 86 °F
Dew Point 75 °F
Humidity 83%
Rainfall 0.00 in
Snow Depth Not available.
UV 1 out of 12
Pollen Not available.
Air Quality Not available.
Flu Activity Not available.
METAR PHNG 050357Z AUTO 06006KT FEW017 28/23 A2983 RMK AO2 SLP097 T02780228 PWINO $

More Conditions Fewer Conditions

Pressure 29.82 in
Visibility -9999.0 miles
Clouds Few 1700 ft
Heat Index 86 °F
Dew Point 75 °F
Humidity 83%
Rainfall 0.00 in
Snow Depth Not available.
UV 1 out of 12
Pollen Not available.
Air Quality Not available.
Flu Activity Not available.
METAR PHNG 050357Z AUTO 06006KT FEW017 28/23 A2983 RMK AO2 SLP097 T02780228 PWINO $

More Conditions Fewer Conditions

10-Day Weather Forecast

×

Almanac

Astronomy

Aug. 04, 2015 Rise Set
Actual Time
Civil Twilight
Nautical Twilight
Astronomical Twilight
Moon
Length of Visible Light
Length of Day
Tomorrow will be .
, % of the Moon is Illuminated

Today's Extremes

State Highs State Lows

Community

WunderPhotos

Upload Photos

1,844,094 photos uploaded!

WunderBlogs® & News

Nearby

Air Quality

  Air Quality AQ Index Pollutant
Not available.

Snow Depth

Station Depth Elevation

Earthquake Activity

City Distance Mag. Time & Date
Minimum magnitude displayed is 2.5.

Coastal Water Temperatures

Place Temperature

Stations

Nearby Weather Stations

Station Location Temp. Windchill Dew Point Humidity Wind Precip. Elev Updated Type
                   
High Surf Advisory
Statement as of 3:30 PM HST on August 04, 2015

... High surf advisory remains in effect from midnight tonight to
noon HST Thursday...

A high surf advisory remains in effect from midnight tonight to
noon HST Thursday.

* Surf... up to 5 feet through the evening... increasing to 6 to
10 feet late tonight and Wednesday... .then declining Thursday.

* Timing... building late tonight... peaking late Wednesday... then
declining Thursday.

* Impacts... moderate... expect strong breaking waves... shore
break... and strong currents making swimming dangerous.

Precautionary/preparedness actions... heed all advice from ocean
safety officials and exercise caution. Boaters should expect
surfers using Harbor channels to reach surf breaks.


Donaldson